Houston Hull, TX

7:33 PM CST on November 22, 2019 (GMT -0600)
Sugar Land Municipal-Hull

Weather History for KSGR - September, 2019

Change the Weather History Date:

Thursday, September 26, 2019

  Actual Average Record
Temperature  
Mean Temperature 82 °F -  
Max Temperature 93 °F 87 °F 98 °F (2005)
Min Temperature 72 °F 65 °F 50 °F (1989)
Cooling Degree Days 16    
Growing Degree Days 32 (Base 50)    
Moisture  
Dew Point 73 °F    
Average Humidity 78    
Maximum Humidity 100    
Minimum Humidity 48    
Precipitation  
Precipitation 0.00 in - - ()
Sea Level Pressure  
Sea Level Pressure 29.90 in    
Wind  
Wind Speed 4 mph (SE)    
Max Wind Speed 12 mph    
Max Gust Speed -    
Visibility 10 miles    
Events      
Averages and records for this station are not official NWS values.
T = Trace of Precipitation, MM = Missing Value Source: NWS Daily Summary

Daily Weather History Graph

Daily Weather History Graph

Search for Another Location

Airport or City:

Astronomy

Sep. 26, 2019 Rise Set
Actual Time 7:13 AM CDT 7:14 PM CDT
Civil Twilight 6:49 AM CDT 7:38 PM CDT
Nautical Twilight 6:21 AM CDT 8:05 PM CDT
Astronomical Twilight 5:53 AM CDT 8:33 PM CDT
Moon 4:39 AM CDT (9/26) 6:13 PM CDT (9/26)
Length of Visible Light 12h 48m
Length of Day
12h 01m
Waning Crescent, 6% of the Moon is Illuminated
Sep 26
Waning Crescent
Sep 28
New
Oct 5
First Quarter
Oct 13
Full
Oct 21
Last Quarter

Hourly Weather History & Observations

Time (CDT) Temp. Heat Index Dew Point Humidity Pressure Visibility Wind Dir Wind Speed Gust Speed Precip Events Conditions
12:53 AM 75.9 °F - 73.0 °F 91% 29.91 in 10.0 mi South 5.8 mph - N/A   Clear
1:53 AM 73.9 °F - 73.0 °F 97% 29.90 in 10.0 mi Calm Calm - N/A   Clear
2:53 AM 73.0 °F - 72.0 °F 96% 29.88 in 10.0 mi Calm Calm - N/A   Clear
3:53 AM 72.0 °F - 72.0 °F 100% 29.87 in 10.0 mi Calm Calm - N/A   Clear
4:53 AM 72.0 °F - 72.0 °F 100% 29.89 in 10.0 mi Calm Calm - N/A   Clear
5:53 AM 72.0 °F - 72.0 °F 100% 29.91 in 10.0 mi Calm Calm - N/A   Clear
6:53 AM 72.0 °F - 72.0 °F 100% 29.92 in 10.0 mi Calm Calm - N/A   Clear
7:53 AM 75.0 °F - 73.9 °F 96% 29.93 in 10.0 mi East 3.5 mph - N/A   Clear
8:53 AM 81.0 °F 86.7 °F 75.0 °F 82% 29.95 in 10.0 mi Calm Calm - N/A   Partly Cloudy
9:53 AM 84.0 °F 91.2 °F 73.9 °F 72% 29.94 in 10.0 mi South 4.6 mph - N/A   Partly Cloudy
10:53 AM 86.0 °F 93.8 °F 73.9 °F 67% 29.95 in 10.0 mi Calm Calm - N/A   Mostly Cloudy
11:53 AM 88.0 °F 95.6 °F 73.0 °F 61% 29.95 in 10.0 mi East 5.8 mph - N/A   Scattered Clouds
12:53 PM 90.0 °F 96.9 °F 72.0 °F 55% 29.94 in 10.0 mi East 6.9 mph - N/A   Clear
1:53 PM 90.0 °F 95.4 °F 70.0 °F 52% 29.91 in 10.0 mi East 8.1 mph - N/A   Partly Cloudy
2:53 PM 91.0 °F 95.6 °F 69.1 °F 48% 29.88 in 10.0 mi Variable 5.8 mph - N/A   Clear
3:53 PM 91.0 °F 95.6 °F 69.1 °F 48% 29.85 in 10.0 mi SE 5.8 mph - N/A   Clear
4:53 PM 90.0 °F 95.4 °F 70.0 °F 52% 29.83 in 10.0 mi SSE 8.1 mph - N/A   Clear
5:53 PM 89.1 °F 95.0 °F 71.1 °F 55% 29.83 in 10.0 mi SE 11.5 mph - N/A   Clear
6:53 PM 86.0 °F 92.2 °F 72.0 °F 63% 29.85 in 10.0 mi SSE 10.4 mph - N/A   Clear
7:53 PM 82.0 °F 87.9 °F 73.9 °F 76% 29.86 in 10.0 mi SSE 9.2 mph - N/A   Clear
8:53 PM 80.1 °F 85.1 °F 75.0 °F 85% 29.88 in 10.0 mi SSE 10.4 mph - N/A   Clear
9:53 PM 79.0 °F - 75.9 °F 90% 29.89 in 10.0 mi SSE 6.9 mph - N/A   Clear
10:53 PM 79.0 °F - 75.0 °F 88% 29.89 in 10.0 mi SE 5.8 mph - N/A   Clear
11:53 PM 79.0 °F - 75.0 °F 88% 29.88 in 10.0 mi SE 6.9 mph - N/A   Clear